Dewpoint
70 70 71 70 71 71 70 71 74 75 74 73 74 73 72 72 73 74 73 72 71 71 72 71 71 73 68 65 66 65 65 67 62 64 67 71 73 73 72 72 71 71 71
69 71 70 71 72 70 71 71 71 72 73 75 73 72 73 72 73 73 72 70 71 70 70 71 71 67 72 72 66 71 67 69 65 68 69 65 71 72 74 74 68 66 70
69 69 70 70 71 71 71 72 72 72 73 72 74 74 72 72 70 72 73 71 70 70 70 70 70 70 71 68 70 68 66 66 68 64 65 66 68 70 71 74 71 73 68
69 69 70 71 72 71 72 73 74 73 73 73 74 72 73 72 71 71 71 71 71 69 70 70 70 70 70 71 70 71 70 69 68 66 63 66 68 70 70 66 69 66 67
73 73 71 75 75 75 73 73 73 73 73 73 73 72 73 72 69 73 71 71 71 70 70 70 69 70 70 70 68 70 72 69 65 64 63 62 62 65 69 66 66 70 69
72 73 73 74 73 74 73 73 73 73 73 73 73 74 72 71 64 66 69 71 73 72 70 71 71 71 71 68 68 69 71 75 74 67 73 66 70 68 67 65 64 72 68
71 70 70 71 72 71 72 72 73 72 72 73 73 73 74 70 61 63 65 71 71 72 73 73 71 70 70 72 66 65 65 65 66 74 73 72 71 72 73 71 73 73 67
71 71 71 71 71 69 70 70 72 73 73 73 73 73 72 62 57 59 62 71 71 71 71 72 73 71 70 71 71 69 66 62 65 67 70 69 68 71 71 71 75 70 65
69 70 70 70 70 70 69 67 68 68 69 69 68 67 67 68 55 56 61 70 71 70 70 70 70 68 62 64 68 65 62 57 57 58 58 58 58 60 63 73 73 72 71
66 67 68 68 68 67 66 66 64 65 64 64 62 61 59 62 56 55 59 67 69 67 66 63 57 65 58 61 67 65 63 60 59 61 62 61 61 60 59 62 60 62 69
64 65 66 67 68 66 65 66 64 62 61 61 60 60 58 55 57 54 55 69 67 66 65 63 60 55 54 56 61 66 65 63 61 63 60 57 57 56 55 57 58 54 55
63 63 64 64 64 64 63 63 63 62 61 60 60 58 59 59 53 53 55 57 61 62 59 57 53 51 50 52 55 54 55 58 57 55 54 53 54 54 54 55 56 54 52
58 59 60 60 62 63 62 62 60 60 59 58 57 57 57 58 57 54 53 54 55 55 52 51 50 49 50 50 51 52 53 54 54 51 51 50 50 51 57 53 55 56 54
56 55 57 57 58 58 57 63 62 59 59 58 57 54 54 57 57 57 57 55 54 53 53 52 51 50 50 49 48 49 50 49 47 48 47 50 50 51 41 41 41 41 44
54 51 50 51 55 54 49 48 55 50 48 51 44 42 42 42 49 48 53 56 55 53 54 53 52 51 50 49 49 47 44 44 43 42 41 41 40 41 41 43 40 39 39
54 52 50 50 50 49 50 49 42 42 41 40 40 41 41 41 41 44 45 47 48 50 53 52 53 53 52 51 50 47 47 47 47 45 43 41 40 38 39 40 42 43 42
48 48 46 48 49 50 51 53 52 43 42 41 41 41 41 40 39 43 42 44 46 50 53 52 50 50 48 45 44 43 41 41 43 41 41 39 39 38 38 37 37 37 37
45 46 40 39 41 44 45 44 41 41 40 41 41 42 40 40 40 40 42 46 52 52 52 51 50 50 48 45 41 38 38 39 39 40 39 39 38 37 36 37 35 35 35
47 45 46 43 38 37 35 33 30 35 37 38 41 43 42 40 40 41 41 50 50 50 48 47 46 44 43 42 39 39 39 37 37 37 37 38 38 37 38 36 35 37 36
48 50 48 47 45 39 37 35 35 40 39 39 38 40 44 43 44 45 46 45 43 41 42 43 42 42 41 41 41 40 38 37 40 39 38 37 37 34 33 33 33 33 35
46 45 50 45 44 44 45 43 42 41 40 39 39 42 42 43 41 41 41 42 41 41 43 41 40 40 40 40 39 37 36 37 39 38 37 37 37 34 37 35 33 34 35
46 46 44 44 44 44 43 44 43 42 41 41 39 40 40 40 39 39 40 40 40 42 40 42 40 39 37 38 38 37 37 35 35 35 35 36 35 34 34 34 33 34 34
44 45 47 47 45 45 43 42 40 39 38 37 39 35 35 36 38 39 41 41 41 41 41 40 40 38 39 39 39 39 37 35 36 35 34 34 34 34 34 34 32 32 32
47 46 48 49 46 44 43 41 40 39 37 37 40 38 36 37 38 40 40 40 41 41 41 41 40 40 41 41 40 37 38 38 37 37 36 36 36 33 36 36 34 34 34
48 49 49 49 46 44 42 40 40 41 39 37 38 39 40 41 40 40 40 41 41 41 41 41 41 42 43 43 41 39 39 34 39 37 38 37 37 37 36 35 35 35 35
45 46 47 47 47 45 43 42 42 43 42 39 41 41 42 41 42 42 42 42 43 42 42 41 42 43 43 43 43 38 32 32 38 34 40 40 39 38 38 38 38 36 36
Lifted_Index
-4 -4 -3 -3 -4 -3 -3 -4 -4 -4 -4 -5 -5 -5 -5 -5 -5 -5 -5 -5 -4 -4 -4 -4 -4 -4 -4 -3 -3 -3 -3 -3 -3 -3 -4 -4 -5 -5 -5 -5 -4 -4 -4
-4 -4 -4 -4 -4 -3 -3 -4 -4 -4 -4 -5 -5 -5 -5 -5 -5 -5 -5 -4 -4 -4 -4 -4 -4 -4 -4 -3 -3 -3 -3 -3 -3 -3 -3 -3 -4 -5 -5 -5 -4 -4 -3
-4 -4 -4 -4 -4 -4 -4 -4 -4 -4 -4 -5 -5 -5 -5 -4 -4 -5 -5 -4 -4 -4 -4 -4 -4 -4 -3 -3 -3 -3 -3 -3 -3 -3 -3 -3 -3 -4 -4 -4 -3 -3 -3
-4 -4 -4 -4 -4 -4 -4 -4 -4 -5 -5 -5 -5 -5 -5 -4 -4 -5 -5 -4 -4 -4 -4 -4 -4 -3 -3 -3 -3 -3 -3 -3 -3 -3 -2 -3 -3 -3 -3 -3 -3 -3 -2
-4 -5 -5 -5 -5 -4 -4 -4 -5 -5 -5 -5 -5 -5 -5 -5 -4 -4 -4 -4 -4 -4 -4 -4 -4 -3 -3 -3 -3 -3 -3 -3 -3 -3 -3 -2 -2 -3 -3 -3 -3 -3 -2
-4 -4 -4 -4 -4 -4 -4 -4 -4 -5 -5 -5 -5 -5 -5 -4 -4 -3 -4 -4 -5 -4 -4 -4 -4 -4 -3 -3 -2 -2 -3 -3 -3 -3 -3 -3 -3 -3 -3 -2 -3 -3 -2
-4 -4 -4 -3 -3 -3 -3 -3 -3 -4 -5 -5 -5 -5 -5 -4 -3 -3 -3 -4 -4 -4 -4 -4 -4 -4 -3 -3 -2 -2 -2 -2 -2 -3 -3 -3 -3 -3 -3 -3 -3 -2 -2
-5 -4 -4 -4 -3 -2 -2 -2 -2 -3 -3 -4 -4 -4 -3 -2 -2 -1 -2 -3 -3 -3 -3 -3 -3 -3 -3 -2 -2 -1 -1 -1 -1 -1 -2 -1 -1 -2 -2 -3 -3 -2 -2
-4 -4 -3 -3 -2 -1 -1 -1 -1 -1 -1 -1 -1 -1 -1 -1 -0 0 -1 -2 -2 -2 -2 -2 -2 -2 -1 -1 -1 -0 0 -0 -0 -0 -0 0 0 -0 -1 -2 -2 -2 -2
-2 -2 -2 -1 -0 0 0 0 0 0 0 1 1 1 1 1 1 1 0 -1 -1 -1 -1 -1 -1 -1 -0 -0 0 1 1 1 0 1 1 2 2 1 1 0 -0 -0 0
-1 -1 -0 1 1 1 1 1 1 1 1 1 2 1 1 1 1 1 0 -1 -1 -1 -0 -0 -0 -0 -0 0 1 1 2 2 2 2 3 3 3 3 3 3 4 4 4
-0 -0 0 1 1 1 2 2 1 1 1 1 1 1 1 1 1 1 1 0 -0 -0 -0 0 0 0 0 1 1 2 3 3 3 3 4 4 5 5 6 7 8 9 9
-0 0 1 1 1 1 1 1 1 1 1 0 0 1 1 1 1 2 1 1 0 0 0 1 1 1 1 2 3 4 5 5 5 5 5 6 7 9 10 11 11 12 13
0 0 1 1 1 1 1 1 1 1 1 1 1 1 2 2 3 3 2 2 1 1 1 2 2 2 3 4 5 5 6 7 7 7 8 10 12 13 14 14 14 14 14
1 1 1 1 1 1 1 1 1 1 1 1 2 3 3 4 5 6 5 3 3 3 3 3 4 4 5 5 6 6 7 7 8 10 11 13 14 14 14 14 14 14 14
1 2 2 2 2 2 2 2 2 2 2 2 3 4 5 6 8 8 7 6 5 5 5 5 5 5 6 7 7 8 8 9 10 11 13 13 13 14 14 14 14 13 13
3 3 4 4 5 4 4 4 4 4 4 5 5 6 6 8 9 8 7 7 7 6 6 6 6 7 7 8 9 10 11 11 12 14 14 15 15 15 15 15 15 15 15
5 6 6 7 7 7 7 7 8 8 8 8 8 8 8 9 8 8 7 7 7 6 6 7 7 8 8 9 10 12 13 14 15 15 15 16 16 16 16 16 16 16 16
6 6 7 7 8 8 9 9 10 10 9 10 10 10 10 10 9 8 8 7 7 7 7 8 9 9 10 11 12 13 14 15 14 14 14 14 15 15 15 15 15 15 15
6 6 6 6 7 7 8 8 9 9 9 9 9 9 9 9 9 9 8 8 8 9 9 9 10 11 11 12 12 13 13 13 13 12 13 13 14 14 14 15 15 14 14
5 5 6 5 6 6 6 6 7 7 7 7 8 8 9 8 8 8 8 9 9 9 9 10 10 11 11 11 12 12 12 12 12 12 13 13 14 14 14 14 14 14 14
4 4 4 4 4 5 5 5 5 5 6 6 7 8 8 8 7 7 8 8 8 8 9 9 9 10 10 11 11 11 12 12 12 13 13 13 13 14 14 14 13 13 13
4 3 3 3 3 4 4 4 4 4 5 5 5 6 7 7 6 6 6 6 6 7 7 8 8 8 9 9 9 10 10 11 11 12 12 12 12 13 13 12 12 12 12
3 2 2 1 2 3 3 3 3 4 4 4 4 4 5 5 5 5 5 5 5 5 6 6 6 7 7 7 8 8 9 9 10 10 11 11 11 11 11 10 10 10 10
2 2 1 1 1 2 3 3 3 3 3 3 3 3 3 4 4 4 4 4 4 4 5 5 5 5 6 6 7 7 8 9 9 9 9 9 9 9 8 8 8 7 8
2 2 1 1 1 2 2 3 3 3 3 3 3 3 3 3 3 3 3 3 3 4 4 5 5 5 5 5 6 7 8 9 9 9 9 8 8 7 7 6 6 6 6